Tracking 29892 objects as of 21-Nov-2024
HD Live streaming from Space Station
objects crossing your sky now

STARLINK-1961

Track STARLINK-1961 now!
10-day predictions
STARLINK-1961 is classified as:


NORAD ID: 47562
Int'l Code: 2021-009Q
Perigee: 428.2 km
Apogee: 429.9 km
Inclination: 53.1 °
Period: 93.0 minutes
Semi major axis: 6800 km
RCS: Unknown
Launch date: February 4, 2021
Source: United States (US)
Launch site: AIR FORCE EASTERN TEST RANGE (AFETR)
Your satellite tracking list
Your tracking list is empty




NASA's NSSDC Master Catalog

Two Line Element Set (TLE):
1 47562U 21009Q   24326.25001157  .01204502  00000-0  20445-1 0  9994
2 47562  53.0508 344.1663 0001243  81.0306  63.7049 15.48223110210089
Source of the keplerian elements: AFSPC